Location: Newark
(34.9500°N, 139.9667°E)
Time: 20:01:41
(UTC+00:00)

Vanguard 1 Rocket - Pass Details

Date: 12 December 2019
Orbit: 651 x 4226 km, 34.3° (Epoch: 28 January)

Event Time Altitude Azimuth Distance (km) Brightness Sun altitude
Rises 07:03:42 0° 197° (SSW) 8,361 13.1 3.7°
Reaches altitude 10° 07:11:38 10° 185° (S) 7,421 12.6 2.3°
Maximum altitude 07:29:30 25° 141° (SE) 5,721 11.4 -0.9°
Drops below altitude 10° 07:43:22 10° 95° (E) 5,821 11.0 -3.5°
Enters shadow 07:47:47 - 84° (E) 6,261 11.1 -4.3°
Sets 07:48:16 0° 83° (E) 6,320 - -4.4°
